Torna al catalogo

ATLAS 5 CENTAUR DEB

LostHEO
NORAD 44847·DEBRIS·🇺🇸 United States

Lanciato Sep 17, 2014 da Cape Canaveral Space Force Station

Loading…

Prossimi Passaggi (prossime 24 ore)

TLE

ObsoletoSource: Space-Track

Epoca: May 22, 2020, 12:00 UTC

1 44847U 14055CF  20143.50000001 -.00000086  00000-0  00000+0 0  9992
2 44847  22.1980 344.5080 4978125 170.6020 256.1230  1.90758639 10926

Traccia ATLAS 5 CENTAUR DEB in tempo reale con AllMySat

Download on the App Store